Western Head, Nova Scotia

7:36 AM ADT on October 22, 2017 (GMT -0300)
Western Head

Weather History for CWWE - October, 2011

Change the Weather History Date:

Sunday, October 23, 2011

  Actual Average Record
Temperature  
Mean Temperature 52 °F -  
Max Temperature 61 °F - - ()
Min Temperature 43 °F - - ()
Degree Days  
Heating Degree Days 13    
Growing Degree Days 2 (Base 50)    
Moisture  
Dew Point 45 °F    
Average Humidity 81    
Maximum Humidity 97    
Minimum Humidity 52    
Precipitation  
Precipitation 0.00 in - - ()
Sea Level Pressure  
Sea Level Pressure 30.05 in    
Wind  
Wind Speed 5 mph ()    
Max Wind Speed 9 mph    
Max Gust Speed -    
T = Trace of Precipitation, MM = Missing Value Source: Averaged Metar Reports

Daily Weather History Graph

Daily Weather History Graph

Search for Another Location

Airport or City:

Trip Planner

Search our weather history database for the weather conditions in past years. The results will help you decide how hot, cold, wet, or windy it might be!

Date:

Astronomy

Oct. 23, 2011 Rise Set
Actual Time 7:42 AM ADT 6:22 PM ADT
Civil Twilight 7:13 AM ADT 6:51 PM ADT
Nautical Twilight 6:39 AM ADT 7:25 PM ADT
Astronomical Twilight 6:06 AM ADT 7:58 PM ADT
Moon 3:37 AM ADT (10/23) 4:16 PM ADT (10/23)
Length of Visible Light 11h 38m
Length of Day
10h 39m
Waning Crescent, 15% of the Moon is Illuminated
Oct 23
Waning Crescent
Oct 26
New
Nov 2
First Quarter
Nov 10
Full
Nov 18
Last Quarter

Hourly Weather History & Observations

Time (ADT) Temp. Windchill Dew Point Humidity Pressure Visibility Wind Dir Wind Speed Gust Speed Precip Events Conditions
12:00 AM 53 °F - 51 °F 90% 30.00 in - SW 6.9 mph - -  
12:00 AM 53.1 °F - 50.9 °F 92% 30.00 in - SW 6.9 mph - N/A   Unknown
1:00 AM 52.0 °F - 50.2 °F 94% 30.00 in - WSW 9.2 mph - N/A   Unknown
2:00 AM 49.8 °F - 48.2 °F 94% 30.00 in - WSW 8.1 mph - N/A   Unknown
3:00 AM 47 °F - 46 °F 94% 30.00 in - West 4.6 mph - -  
4:00 AM 46.8 °F - 45.3 °F 95% 30.00 in - West 6.9 mph - N/A   Unknown
5:00 AM 45.9 °F 42.9 °F 44.6 °F 95% 30.00 in - West 5.8 mph - N/A   Unknown
6:00 AM 45 °F - 44 °F 94% 30.01 in - West 5.8 mph - -  
6:00 AM 45.0 °F 41.8 °F 43.9 °F 96% 30.01 in - West 5.8 mph - N/A   Unknown
7:00 AM 44.4 °F 41.2 °F 43.3 °F 96% 30.01 in - WSW 5.8 mph - N/A   Unknown
8:00 AM 44.8 °F 41.6 °F 44.1 °F 97% 30.03 in - West 5.8 mph - N/A   Unknown
9:00 AM 48 °F - 47 °F 97% 30.05 in - NW 3.5 mph - -  
9:00 AM 48.2 °F - 47.5 °F 97% 30.05 in - NW 3.5 mph - N/A   Unknown
10:00 AM 51.3 °F - 49.5 °F 94% 30.06 in - NNW 2.3 mph - N/A   Unknown
11:00 AM 54.5 °F - 50.2 °F 85% 30.07 in - ESE 2.3 mph - N/A   Unknown
12:00 PM 59 °F - 50 °F 65% 30.06 in - West 4.6 mph - -  
12:00 PM 58.8 °F - 50.4 °F 73% 30.06 in - West 4.6 mph - N/A   Unknown
1:00 PM 57.4 °F - 45.9 °F 65% 30.05 in - WNW 6.9 mph - N/A   Unknown
2:00 PM 58.3 °F - 42.3 °F 55% 30.04 in - WNW 4.6 mph - N/A   Unknown
3:00 PM 60 °F - 48 °F 54% 30.05 in - West 3.5 mph - -  
3:00 PM 59.5 °F - 47.7 °F 65% 30.05 in - West 3.5 mph - N/A   Unknown
4:00 PM 58.3 °F - 43.7 °F 58% 30.05 in - NW 4.6 mph - N/A   Unknown
5:00 PM 57.9 °F - 40.1 °F 52% 30.06 in - NW 6.9 mph - N/A   Unknown
6:00 PM 53 °F - 42 °F 56% 30.07 in - WNW 3.5 mph - -  
6:00 PM 52.9 °F - 41.9 °F 66% 30.07 in - WNW 3.5 mph - N/A   Unknown
7:00 PM 48.7 °F - 41.7 °F 77% 30.07 in - NW 4.6 mph - N/A   Unknown
8:00 PM 47.7 °F - 41.0 °F 78% 30.09 in - West 3.5 mph - N/A   Unknown
9:00 PM 47 °F - 42 °F 75% 30.10 in - WNW 2.3 mph - -  
9:00 PM 46.9 °F - 41.5 °F 81% 30.10 in - WNW 2.3 mph - N/A   Unknown
10:00 PM 43.5 °F 39.4 °F 39.9 °F 87% 30.11 in - WNW 6.9 mph - N/A   Unknown
11:00 PM 45.7 °F 41.5 °F 40.6 °F 83% 30.12 in - NW 8.1 mph - N/A   Unknown